Total_Precipitation_Accumulation
0.08 0.10 0.22 0.22 0.14 0.17 0.32 0.24 0.21 0.09 0.09 0.11 0.11 0.14 0.17 0.19 0.16 0.12 0.10 0.09 0.07 0.09 0.10 0.13 0.16 0.19 0.20 0.23 0.28 0.33 0.34 0.31 0.31 0.34 0.35 0.34 0.33 0.31 0.29 0.28 0.30 0.34 0.39 0.43
0.08 0.07 0.13 0.16 0.10 0.08 0.09 0.07 0.07 0.06 0.07 0.06 0.10 0.14 0.17 0.16 0.13 0.10 0.08 0.06 0.05 0.05 0.06 0.07 0.12 0.21 0.26 0.31 0.33 0.32 0.33 0.30 0.29 0.31 0.31 0.31 0.28 0.24 0.23 0.23 0.24 0.27 0.30 0.34
0.11 0.04 0.12 0.15 0.09 0.08 0.06 0.04 0.06 0.08 0.06 0.08 0.15 0.21 0.23 0.17 0.10 0.07 0.05 0.04 0.03 0.03 0.05 0.08 0.16 0.31 0.44 0.51 0.47 0.41 0.38 0.34 0.31 0.31 0.31 0.32 0.32 0.31 0.30 0.28 0.29 0.31 0.32 0.34
0.18 0.11 0.23 0.15 0.07 0.05 0.04 0.05 0.06 0.07 0.07 0.09 0.12 0.17 0.17 0.10 0.05 0.04 0.04 0.03 0.03 0.03 0.06 0.11 0.20 0.32 0.42 0.52 0.56 0.52 0.49 0.47 0.43 0.43 0.45 0.47 0.49 0.49 0.47 0.47 0.47 0.47 0.48 0.49
0.27 0.19 0.12 0.06 0.05 0.07 0.07 0.07 0.06 0.07 0.05 0.05 0.06 0.11 0.11 0.07 0.04 0.04 0.03 0.03 0.02 0.03 0.06 0.12 0.19 0.26 0.38 0.49 0.54 0.58 0.65 0.71 0.70 0.68 0.71 0.73 0.78 0.80 0.77 0.74 0.72 0.72 0.73 0.71
0.34 0.26 0.10 0.05 0.03 0.05 0.08 0.12 0.06 0.07 0.06 0.04 0.05 0.11 0.11 0.09 0.07 0.06 0.04 0.04 0.05 0.06 0.08 0.14 0.22 0.32 0.50 0.63 0.68 0.71 0.77 0.83 0.81 0.80 0.80 0.80 0.80 0.80 0.77 0.72 0.69 0.67 0.66 0.63
0.32 0.28 0.11 0.06 0.03 0.04 0.13 0.14 0.06 0.07 0.07 0.07 0.09 0.11 0.08 0.09 0.11 0.12 0.11 0.12 0.14 0.16 0.21 0.29 0.37 0.51 0.74 0.85 0.83 0.78 0.76 0.72 0.66 0.62 0.58 0.55 0.52 0.50 0.47 0.44 0.41 0.39 0.37 0.33
0.21 0.28 0.16 0.06 0.05 0.11 0.14 0.07 0.05 0.06 0.08 0.09 0.08 0.06 0.06 0.07 0.09 0.14 0.17 0.18 0.21 0.26 0.33 0.40 0.43 0.49 0.59 0.61 0.58 0.54 0.48 0.41 0.34 0.33 0.31 0.29 0.29 0.27 0.24 0.22 0.20 0.19 0.17 0.16
0.19 0.19 0.11 0.07 0.08 0.08 0.07 0.06 0.06 0.07 0.08 0.08 0.07 0.06 0.06 0.06 0.07 0.08 0.11 0.12 0.13 0.15 0.16 0.18 0.19 0.21 0.22 0.22 0.20 0.20 0.17 0.14 0.12 0.12 0.13 0.13 0.14 0.14 0.11 0.10 0.10 0.10 0.10 0.10
0.14 0.09 0.05 0.05 0.04 0.05 0.05 0.06 0.05 0.07 0.07 0.07 0.08 0.06 0.06 0.06 0.06 0.07 0.07 0.06 0.08 0.08 0.07 0.06 0.06 0.06 0.06 0.06 0.08 0.09 0.08 0.08 0.07 0.07 0.07 0.09 0.10 0.11 0.12 0.11 0.10 0.11 0.12 0.12
0.13 0.08 0.06 0.05 0.04 0.05 0.04 0.03 0.03 0.04 0.04 0.05 0.06 0.07 0.07 0.08 0.07 0.07 0.07 0.07 0.07 0.07 0.07 0.06 0.06 0.05 0.05 0.05 0.06 0.08 0.10 0.10 0.10 0.09 0.09 0.10 0.12 0.13 0.15 0.15 0.16 0.18 0.17 0.17
0.15 0.07 0.09 0.07 0.04 0.04 0.04 0.04 0.03 0.03 0.04 0.04 0.05 0.05 0.05 0.06 0.06 0.06 0.07 0.07 0.08 0.08 0.07 0.07 0.08 0.08 0.08 0.08 0.10 0.12 0.13 0.14 0.15 0.16 0.15 0.15 0.15 0.16 0.19 0.21 0.23 0.24 0.23 0.23
0.11 0.07 0.07 0.07 0.05 0.04 0.03 0.03 0.03 0.02 0.03 0.04 0.04 0.04 0.05 0.05 0.05 0.05 0.05 0.05 0.06 0.07 0.07 0.08 0.08 0.09 0.10 0.12 0.14 0.17 0.19 0.21 0.22 0.22 0.21 0.22 0.23 0.23 0.23 0.24 0.28 0.28 0.26 0.26
0.09 0.09 0.10 0.07 0.06 0.05 0.04 0.03 0.03 0.03 0.03 0.03 0.03 0.03 0.03 0.03 0.04 0.04 0.05 0.05 0.05 0.06 0.06 0.07 0.08 0.09 0.10 0.11 0.13 0.14 0.16 0.19 0.21 0.21 0.22 0.23 0.24 0.25 0.27 0.27 0.26 0.24 0.25 0.28
0.11 0.12 0.13 0.10 0.08 0.07 0.05 0.05 0.05 0.05 0.06 0.06 0.05 0.04 0.04 0.04 0.05 0.05 0.05 0.05 0.05 0.05 0.06 0.07 0.08 0.09 0.10 0.12 0.13 0.15 0.16 0.18 0.21 0.23 0.24 0.25 0.26 0.27 0.27 0.27 0.26 0.24 0.24 0.27
0.19 0.16 0.14 0.14 0.13 0.12 0.11 0.11 0.10 0.09 0.08 0.07 0.05 0.05 0.04 0.04 0.05 0.05 0.05 0.05 0.07 0.07 0.07 0.08 0.08 0.10 0.12 0.14 0.16 0.18 0.18 0.23 0.28 0.28 0.28 0.28 0.29 0.31 0.31 0.30 0.29 0.27 0.26 0.28
0.34 0.33 0.29 0.24 0.20 0.19 0.18 0.17 0.15 0.13 0.11 0.10 0.09 0.08 0.07 0.07 0.06 0.06 0.06 0.07 0.07 0.08 0.09 0.10 0.11 0.11 0.13 0.16 0.19 0.20 0.21 0.24 0.32 0.31 0.28 0.29 0.31 0.33 0.34 0.35 0.34 0.30 0.27 0.33
0.35 0.34 0.32 0.32 0.29 0.27 0.26 0.24 0.22 0.20 0.19 0.18 0.16 0.14 0.13 0.12 0.11 0.10 0.09 0.09 0.08 0.08 0.08 0.09 0.10 0.11 0.12 0.16 0.20 0.22 0.23 0.23 0.26 0.29 0.29 0.31 0.36 0.38 0.40 0.39 0.35 0.33 0.30 0.35
0.32 0.31 0.29 0.29 0.29 0.29 0.29 0.29 0.28 0.27 0.25 0.23 0.22 0.21 0.19 0.17 0.15 0.14 0.13 0.13 0.13 0.12 0.11 0.11 0.13 0.13 0.13 0.16 0.22 0.23 0.25 0.26 0.27 0.27 0.29 0.33 0.37 0.34 0.35 0.36 0.35 0.34 0.34 0.36
0.31 0.30 0.27 0.26 0.25 0.25 0.27 0.28 0.27 0.26 0.24 0.23 0.22 0.21 0.19 0.18 0.16 0.15 0.14 0.15 0.15 0.16 0.15 0.15 0.15 0.13 0.14 0.16 0.22 0.24 0.25 0.27 0.28 0.28 0.29 0.31 0.31 0.30 0.31 0.33 0.36 0.37 0.37 0.36
0.34 0.32 0.31 0.32 0.32 0.31 0.31 0.30 0.28 0.26 0.24 0.23 0.23 0.22 0.20 0.17 0.16 0.17 0.18 0.17 0.13 0.13 0.14 0.15 0.15 0.16 0.19 0.25 0.29 0.26 0.26 0.29 0.31 0.33 0.34 0.34 0.34 0.34 0.33 0.34 0.36 0.38 0.38 0.37
0.31 0.32 0.31 0.31 0.32 0.34 0.34 0.30 0.27 0.26 0.27 0.27 0.26 0.24 0.21 0.19 0.17 0.17 0.18 0.19 0.17 0.17 0.18 0.16 0.17 0.22 0.29 0.33 0.29 0.26 0.28 0.31 0.34 0.36 0.37 0.37 0.38 0.37 0.36 0.37 0.38 0.39 0.40 0.40
0.20 0.21 0.22 0.23 0.25 0.27 0.26 0.26 0.27 0.27 0.30 0.33 0.32 0.30 0.28 0.26 0.25 0.26 0.25 0.20 0.19 0.20 0.20 0.19 0.21 0.26 0.30 0.29 0.27 0.28 0.30 0.33 0.35 0.35 0.35 0.36 0.37 0.39 0.40 0.39 0.39 0.40 0.40 0.40
0.17 0.17 0.18 0.18 0.18 0.19 0.21 0.22 0.23 0.25 0.26 0.27 0.27 0.27 0.28 0.29 0.27 0.26 0.27 0.25 0.24 0.24 0.22 0.22 0.25 0.27 0.29 0.27 0.27 0.29 0.31 0.32 0.34 0.35 0.36 0.37 0.37 0.39 0.40 0.40 0.39 0.38 0.38 0.38
0.18 0.17 0.17 0.16 0.17 0.17 0.18 0.19 0.19 0.20 0.21 0.21 0.21 0.21 0.23 0.27 0.30 0.28 0.25 0.23 0.23 0.24 0.22 0.22 0.25 0.27 0.27 0.27 0.29 0.30 0.31 0.34 0.39 0.43 0.42 0.39 0.37 0.38 0.38 0.37 0.38 0.37 0.36 0.35
0.18 0.19 0.18 0.18 0.18 0.18 0.18 0.17 0.17 0.17 0.18 0.19 0.19 0.19 0.20 0.21 0.22 0.22 0.21 0.20 0.20 0.22 0.22 0.21 0.23 0.25 0.26 0.28 0.30 0.31 0.33 0.35 0.37 0.38 0.38 0.37 0.36 0.37 0.36 0.35 0.35 0.35 0.35 0.34
0.18 0.18 0.17 0.16 0.16 0.16 0.16 0.15 0.16 0.16 0.16 0.17 0.18 0.17 0.17 0.19 0.19 0.20 0.21 0.21 0.21 0.21 0.21 0.22 0.23 0.25 0.26 0.28 0.29 0.30 0.31 0.32 0.33 0.35 0.36 0.36 0.37 0.37 0.35 0.35 0.34 0.34 0.35 0.35